STARLINK-33974 (63954 NORAD) Tracking and Keplerian Element Data

This shows tracking and keplerian element data for the satellite.

Feedback or suggestion? Click here.




ElementValue
Catalog63954
NameSTARLINK-33974
Epoch Orbit3515
Epoch Day354.06112854
Epoch Year2025
RAAN266.3148
Inclination42.9989
Eccentricity0.0001344
Argument of Perigee279.3013
Mean Anonmoly80.7687
Mean Motion15.27571281
Decay Rate0.0001098
L11 63954U 25099C 25354.06112854 .00010980 00000+0 40802-3 0 9992
L22 63954 42.9989 266.3148 0001344 279.3013 80.7687 15.27571281 35156



Live tracking and technical data element details for STARLINK-33974 (NORAD 63954). STARLINK-33974 can be tracked NOW for your location showing map with azimuth and elevation plus other details from your city location.







IsCatalogInMostPopularTable: catalog: 63954, numindb: 3
Update: records affected: 1



GetName: 63954 STARLINK-33974

Hit Count: updated at: Sun, 08 Feb 2026 08:02:54 GMT